User: anonymous
Location: Roanoke
(37.2710°N, 79.9420°W)
Time: 18:54:10
(UTC-04:00)
Language:

FENGYUN 3A - Orbit

View from above orbital plane
View from above orbital plane
View from above satellite
View from above satellite

Ground track
Ground track

The orbit data is extracted from the following two-line orbital elements,

1 32958U 08026A   14210.21022110  .00000001  00000-0  20626-4 0  2130
2 32958 098.5513 267.6254 0010427 092.6446 267.5939 14.19460118319804
Epoch (UTC): 29 July 2014 05:02:43
Eccentricity: 0.0010427
inclination: 98.5513°
perigee height: 819 km
apogee height: 834 km
right ascension of ascending node: 267.6254°
argument of perigee: 92.6446°
revolutions per day: 14.19460118
mean anomaly at epoch: 267.5939°
orbit number at epoch: 31980

The dashed part of the orbit path shows where the satellite is in the earth's shadow,  

DLR